Location: Unspecified
(0.0000°N, 0.0000°E)
Time: 04:13:50
(UTC+00:00)

Tiros 1 - All Passes

Search period start: 26 April 2017 00:00
Search period end: 06 May 2017 00:00
Orbit: 631 x 665 km, 48.4° (Epoch: 24 April)

Date Brightness Start Highest point End Pass type
(mag) Time Alt. Az. Time Alt. Az. Time Alt. Az.
26 Apr - 06:37:36 10° S 06:41:33 28° SE 06:45:28 10° ENE daylight
26 Apr - 08:20:02 10° W 08:23:34 21° NW 08:27:05 10° N daylight
26 Apr - 18:49:55 10° NNW 18:54:34 52° NE 18:59:16 10° SE visible
26 Apr - 20:34:31 10° WSW 20:36:41 13° SW 20:38:50 10° SSW visible
27 Apr - 07:03:05 10° SW 07:07:43 84° NW 07:12:19 10° NE daylight
27 Apr - 17:36:00 10° NNE 17:38:39 15° NE 17:41:19 10° E daylight
27 Apr - 19:16:09 10° NW 19:20:44 45° SW 19:25:21 10° SSE visible
28 Apr - 05:48:04 10° S 05:51:52 25° SE 05:55:38 10° ENE daylight
28 Apr - 07:30:09 10° WSW 07:33:53 24° NW 07:37:36 10° N daylight
28 Apr - 18:00:17 10° NNW 18:04:52 46° NE 18:09:29 10° SE daylight
28 Apr - 19:44:21 10° W 19:46:58 14° SW 19:49:35 10° SSW visible
29 Apr - 06:13:24 10° SW 06:18:03 86° SE 06:22:38 10° NE daylight
29 Apr - 16:46:44 10° NNE 16:48:56 13° NE 16:51:10 10° ENE daylight
29 Apr - 18:26:23 10° NW 18:31:01 51° SW 18:35:43 10° SSE visible
30 Apr - 04:58:34 10° S 05:02:10 22° SE 05:05:45 10° ENE visible
30 Apr - 06:40:18 10° WSW 06:44:12 27° NW 06:48:05 10° N daylight
30 Apr - 17:10:40 10° NNW 17:15:10 41° NE 17:19:42 10° ESE daylight
30 Apr - 18:54:17 10° W 18:57:15 16° SW 19:00:13 10° SSW visible
01 May - 05:23:44 10° SW 05:28:22 76° SE 05:32:57 10° NE visible
01 May - 15:57:38 10° NNE 15:59:14 11° NE 16:00:50 10° ENE daylight
01 May - 17:36:37 10° NW 17:41:19 58° SW 17:46:04 10° SSE daylight
02 May - 04:09:05 10° S 04:12:29 20° SE 04:15:51 10° E visible
02 May - 05:50:27 10° WSW 05:54:31 30° NW 05:58:33 10° N daylight
02 May - 16:21:05 10° NNW 16:25:27 36° NE 16:29:53 10° ESE daylight
02 May - 18:04:17 10° W 18:07:32 18° SW 18:10:49 10° S daylight
03 May - 04:34:04 10° SSW 04:38:40 67° SE 04:43:15 10° NE visible
03 May - 15:09:15 10° NE 15:09:31 10° NE 15:09:46 10° NE daylight
03 May - 16:46:53 10° NW 16:51:37 65° SW 16:56:24 10° SSE daylight
04 May - 03:19:38 10° S 03:22:47 18° SE 03:25:55 10° E visible
04 May - 05:00:38 10° WSW 05:04:49 34° NW 05:09:00 10° NNE visible
04 May - 15:31:31 10° NNW 15:35:45 32° NE 15:40:03 10° ESE daylight
04 May - 17:14:19 10° W 17:17:49 20° SW 17:21:21 10° S daylight
05 May - 03:44:24 10° SSW 03:49:00 59° SE 03:53:32 10° NE visible
05 May - 05:30:22 10° WNW 05:31:03 10° NW 05:31:45 10° NW visible
05 May - 15:57:10 10° NW 16:01:55 74° SW 16:06:43 10° SSE daylight
